[[{"header":{"parameterUnit":"m.s-1","parameterCategory":1,"la1":30.2991,"la2":30.254,"lo1":-89.0895,"lo2":-89.0444,"dy":0.0017,"dx":0.0017,"nx":28,"ny":28,"refTime":"2025-07-20T21:00:00:Z","depth":0,"parameterNumber":2,"parameterNumberName":"U-component_of_WINDS"},"data":[0,0,0,0,0,0,0,0,0,0,0,0,0,0,0,0,0,0,0,0,0,0,0,0,0,0,0,0,0,0,0,0,0,0,0,0,0,0,0,0,0,0,0,0,0,0,0,0,0,0,0,0,0,0,0,0,0,0,3.7063,3.7064,0,3.7188,3.719,3.7191,3.7126,3.7123,3.712,3.7117,3.7249,3.7256,3.7262,0,0,0,0,0,0,0,0,0,0,0,0,0,3.6768,3.6774,3.7063,3.7064,3.7066,3.7188,3.719,3.7191,3.7127,3.7123,3.7119,3.7115,3.7247,3.7255,3.7263,0,0,0,0,0,0,0,0,0,0,0,0,0,3.6895,3.6776,3.7062,3.7048,3.7048,3.7188,3.719,3.7192,3.7128,3.7123,3.7118,3.7113,3.7244,3.7254,3.7264,3.7426,0,0,3.7294,3.7299,0,0,0,0,0,0,0,0,3.6888,3.6906,3.7049,3.7049,3.705,3.7136,3.7135,3.7271,3.7129,3.7098,3.7116,3.7111,3.7216,3.7228,3.7263,3.7432,3.7438,3.7295,3.7301,3.7306,3.7309,0,0,0,0,0,0,0,3.6879,3.69,3.7112,3.7051,3.7051,3.7036,3.7048,3.716,3.7184,3.71,3.7096,3.7111,3.7215,3.7253,3.7265,3.744,3.7295,3.7304,3.731,3.7314,3.7745,3.775,0,0,0,0,0,0,3.6871,3.6894,3.7108,3.7116,3.6955,3.7045,3.7059,3.7114,3.7182,3.7188,3.7115,3.7108,3.7239,3.7254,3.727,3.7462,3.7306,3.7315,3.7321,3.774,3.7746,3.7752,0,0,0,0,0,0,3.6865,3.6891,3.7103,3.7004,3.7029,3.7056,3.7117,3.7119,3.7157,3.7194,3.7198,3.715,3.7235,3.7256,3.7387,3.7465,3.7319,3.7329,3.7733,3.7742,3.7749,3.7848,0,0,0,0,0,0,3.6857,3.6889,3.6951,3.7005,3.7035,3.7218,3.7122,3.7125,3.7174,3.7165,3.7227,3.7233,3.7233,3.7372,3.7397,3.7477,3.7336,3.7726,3.7737,3.7747,3.7838,3.7859,3.7877,0,0,0,0,0,3.6846,3.6975,3.6954,3.698,3.7113,3.7223,3.724,3.7236,3.718,3.7242,3.7265,3.7231,3.7453,3.7386,3.7413,3.7497,3.7721,3.7734,3.7746,3.7829,3.7855,3.7876,0,0,0,0,0,0,3.6931,3.6982,3.696,3.711,3.7162,3.7211,3.729,3.7264,3.7334,3.7323,3.7317,3.7332,3.7467,3.7496,3.742,3.7656,3.7578,3.7597,3.7633,3.7657,3.7676,3.7666,3.7345,0,0,0,0,0,3.6967,3.7051,3.7092,3.722,3.7247,3.7264,3.7312,3.7305,3.7359,3.7382,3.7415,3.747,3.7551,3.7606,3.7684,3.7842,3.7853,3.7913,3.7932,3.7948,3.7964,3.8047,3.8073,3.7793,3.7793,3.7792,0,0,3.7042,3.7081,3.7135,3.7238,3.7278,3.7365,3.7283,3.738,3.7445,3.7397,3.7521,3.7547,3.7608,3.7753,3.7818,3.778,3.8043,3.7963,3.7976,3.7983,3.8062,3.8088,3.8112,3.7801,3.78,3.7798,0,0,3.7224,3.7262,3.7372,3.7413,3.7473,3.7483,3.7509,3.7562,3.7577,3.7701,3.7666,3.7743,3.7885,3.7929,3.7971,3.8166,3.8135,3.8191,3.8292,3.8373,3.8395,3.8414,3.8482,3.8507,3.8207,3.8207,3.8207,0,3.7311,3.744,3.7432,3.7531,3.7576,3.7534,3.7645,3.7686,3.7769,3.7802,3.7758,3.7933,3.7971,3.8124,3.8171,3.8206,3.8236,3.8184,3.8392,3.8412,3.843,3.8494,3.852,3.8214,3.8213,3.8212,3.8212,0,3.7542,3.7633,3.7714,3.7793,3.7848,3.7953,3.796,3.8017,3.8004,3.8019,3.8145,3.8189,3.8273,3.8309,3.8299,3.846,3.8435,3.8392,3.8314,3.8463,3.8523,3.8548,3.8222,3.822,3.8218,3.8217,0,0,3.7783,3.7853,3.7883,3.7917,3.7979,3.8049,3.8151,3.8232,3.8279,3.8338,3.8423,3.8542,3.8502,3.8548,3.8543,3.8614,3.8763,3.8562,3.8563,3.8596,3.8941,3.8971,3.9,3.8743,3.8748,3.8752,3.8935,0,3.7967,3.8143,3.8138,3.8303,3.8385,3.8345,3.8433,3.8481,3.8497,3.8569,3.8586,3.867,3.8612,3.8639,3.8708,3.873,3.8832,3.8717,3.8821,3.8825,3.8806,3.9032,3.9066,3.9237,3.8959,3.8963,3.8966,0,3.8207,3.827,3.8442,3.8489,3.8523,3.8603,3.8675,3.8744,3.8797,3.8803,3.8854,3.8836,3.8938,3.8857,3.8998,3.892,3.8962,3.8979,3.8986,3.8995,3.8904,3.9046,3.9292,3.9317,3.9003,3.9,3.8998,0,3.8362,3.8491,3.8609,3.864,3.8699,3.8755,3.8782,3.883,3.8877,3.8941,3.8971,3.9047,3.9088,3.9147,3.9149,3.909,3.9291,3.921,3.9298,3.9298,3.9342,3.9339,3.9596,3.9372,3.9371,3.9371,3.937,0,3.8568,3.8675,3.8679,3.8753,3.887,3.8862,3.8979,3.9001,3.9043,3.9119,3.909,3.9163,3.9162,3.9236,3.9239,3.9353,3.9373,3.938,3.938,3.9382,3.9381,3.9409,3.9397,3.9378,3.9376,3.9375,3.9374,0,3.8762,3.877,3.8896,3.894,3.8953,3.9038,3.9075,3.9144,3.9156,3.9253,3.9275,3.9295,3.938,3.9388,3.9488,3.9489,3.9627,3.9615,3.9609,3.9606,3.9693,3.9684,3.9976,4.0014,3.9766,3.9768,3.977,0,3.8892,3.8973,3.9024,3.9072,3.9101,3.918,3.9228,3.9223,3.9274,3.9338,3.94,3.9481,3.9546,3.9684,3.9707,3.9782,3.977,3.9867,3.9781,3.978,3.9769,3.9764,3.9771,3.9884,3.9887,3.9889,3.9891,0,3.9122,3.9121,3.919,3.9261,3.9318,3.9374,3.9426,3.9467,3.9468,3.9527,3.9612,3.9662,3.9762,3.9843,3.9916,3.9945,3.9918,3.9917,3.9941,3.9944,3.9937,3.994,3.9653,3.9911,3.9909,3.9907,3.9906,3.9905,3.9287,3.9355,3.9401,3.9479,3.9517,3.9565,3.9631,3.965,3.9721,3.98,3.9793,3.9887,3.9936,4.0031,4.0064,4.0138,4.0105,4.014,4.0149,4.0157,4.0165,3.9926,4.0151,4.0151,4.015,4.015,4.0149,0,3.9514,3.9541,3.9612,3.9684,3.9744,3.9712,3.9767,3.982,3.9902,3.9949,4.0013,4.0109,4.0187,4.0215,4.0291,4.0344,4.0333,4.0364,4.0359,4.0366,4.0191,4.0162,4.0371,4.0371,4.0371,4.0371,4.0371,4.0371,3.9639,3.9752,3.9756,3.9887,3.9913,4.0003,4.0037,4.0081,4.0118,4.0227,4.029,4.0307,4.0347,4.0424,4.0494,4.05,4.0528,4.0564,4.0565,4.0401,4.0379,4.0357,4.033,4.057,4.0571,4.0733,4.0735,4.0736]},{"header":{"parameterUnit":"m.s-1","parameterCategory":1,"la1":30.2991,"la2":30.254,"lo1":-89.0895,"lo2":-89.0444,"dy":0.0017,"dx":0.0017,"nx":28,"ny":28,"refTime":"2025-07-20T21:00:00:Z","depth":0,"parameterNumber":3,"parameterNumberName":"V-component_of_WINDS"},"data":[0,0,0,0,0,0,0,0,0,0,0,0,0,0,0,0,0,0,0,0,0,0,0,0,0,0,0,0,0,0,0,0,0,0,0,0,0,0,0,0,0,0,0,0,0,0,0,0,0,0,0,0,0,0,0,0,0,0,1.1911,1.1912,0,1.193,1.1931,1.1931,1.1907,1.1906,1.1905,1.1904,1.1923,1.1925,1.1926,0,0,0,0,0,0,0,0,0,0,0,0,0,1.1853,1.1855,1.1911,1.1912,1.1912,1.193,1.1931,1.1931,1.1907,1.1906,1.1905,1.1904,1.1923,1.1924,1.1926,0,0,0,0,0,0,0,0,0,0,0,0,0,1.1876,1.1855,1.1911,1.1902,1.1901,1.193,1.1931,1.1931,1.1907,1.1906,1.1904,1.1903,1.1922,1.1924,1.1926,1.1965,0,0,1.1932,1.1933,0,0,0,0,0,0,0,0,1.1875,1.1878,1.1903,1.1903,1.1902,1.1915,1.1917,1.1942,1.1907,1.1905,1.1904,1.1903,1.1922,1.1924,1.193,1.1966,1.1967,1.1933,1.1934,1.1935,1.1935,0,0,0,0,0,0,0,1.1873,1.1877,1.1919,1.1904,1.1903,1.1897,1.1898,1.1922,1.192,1.1905,1.1903,1.1906,1.1921,1.1928,1.193,1.1967,1.1932,1.1934,1.1935,1.1936,1.2034,1.2035,0,0,0,0,0,0,1.1873,1.1876,1.1918,1.1919,1.1885,1.1899,1.1901,1.1912,1.192,1.192,1.1907,1.1905,1.1925,1.1928,1.1931,1.1976,1.1935,1.1936,1.1938,1.2033,1.2034,1.2036,0,0,0,0,0,0,1.1872,1.1877,1.1918,1.1897,1.1902,1.1901,1.1914,1.1913,1.192,1.1922,1.1921,1.1915,1.1924,1.1928,1.1956,1.1976,1.1937,1.1939,1.2031,1.2033,1.2035,1.2067,0,0,0,0,0,0,1.187,1.1877,1.1892,1.1898,1.1903,1.1943,1.1915,1.1914,1.1924,1.1921,1.1929,1.1929,1.1924,1.1953,1.1958,1.1978,1.1941,1.2029,1.2032,1.2034,1.2064,1.2069,1.2074,0,0,0,0,0,1.1868,1.19,1.1893,1.1898,1.1922,1.1944,1.1947,1.1941,1.1926,1.194,1.1941,1.1928,1.1973,1.1957,1.1962,1.1983,1.2028,1.2031,1.2034,1.2061,1.2068,1.2074,0,0,0,0,0,0,1.1897,1.1901,1.1893,1.1927,1.1936,1.194,1.1959,1.1949,1.1962,1.1959,1.195,1.1952,1.1982,1.1985,1.1967,1.202,1.1998,1.2002,1.2017,1.2023,1.2029,1.2027,1.1942,0,0,0,0,0,1.1907,1.1925,1.1927,1.1958,1.1962,1.196,1.197,1.1964,1.1972,1.1976,1.1978,1.1987,1.2002,1.2013,1.2028,1.2064,1.2065,1.2081,1.2086,1.209,1.2094,1.2112,1.2119,1.2046,1.2046,1.2046,0,0,1.1928,1.1933,1.1945,1.1964,1.197,1.1988,1.1963,1.1984,1.1997,1.1979,1.2005,1.2008,1.2016,1.2048,1.2063,1.2052,1.2114,1.2094,1.2098,1.2099,1.2116,1.2123,1.2129,1.2048,1.2048,1.2048,0,0,1.1977,1.1983,1.2008,1.2014,1.2023,1.2021,1.2027,1.2033,1.2033,1.206,1.2046,1.2061,1.2089,1.2096,1.2103,1.2152,1.214,1.2157,1.2185,1.2203,1.2208,1.2213,1.223,1.2236,1.2161,1.2161,1.2161,0,1.2003,1.203,1.2022,1.2044,1.2052,1.2035,1.2061,1.2067,1.208,1.2086,1.2074,1.2107,1.2112,1.2145,1.2157,1.2163,1.2169,1.2156,1.2208,1.2213,1.2218,1.2234,1.224,1.2163,1.2162,1.2162,1.2162,0,1.2061,1.208,1.2099,1.2112,1.2122,1.2146,1.2141,1.2152,1.2145,1.2144,1.2171,1.2176,1.2191,1.2198,1.2192,1.223,1.2223,1.221,1.2187,1.2227,1.2241,1.2248,1.2165,1.2165,1.2164,1.2164,0,0,1.2128,1.2136,1.2143,1.2148,1.2156,1.217,1.2192,1.2206,1.2216,1.2225,1.2243,1.2266,1.2254,1.2262,1.2256,1.2271,1.2309,1.2256,1.2256,1.2265,1.235,1.236,1.2367,1.2302,1.2303,1.2304,1.2349,0,1.2176,1.2214,1.2207,1.2244,1.2261,1.2245,1.2264,1.2271,1.227,1.2284,1.2284,1.23,1.2282,1.2287,1.2302,1.2301,1.2326,1.2298,1.2317,1.2318,1.2316,1.2375,1.2386,1.2429,1.2355,1.2356,1.2357,0,1.2237,1.2248,1.2287,1.2291,1.2298,1.2315,1.2327,1.2341,1.2348,1.2346,1.2354,1.2345,1.2366,1.2344,1.2372,1.2354,1.2361,1.2362,1.2363,1.2365,1.234,1.2378,1.2442,1.2448,1.2366,1.2365,1.2365,0,1.2282,1.2306,1.2332,1.2337,1.2343,1.2355,1.2358,1.2364,1.2372,1.2383,1.2388,1.2401,1.2408,1.2417,1.2412,1.2396,1.2441,1.2418,1.244,1.244,1.245,1.2449,1.2516,1.2456,1.2455,1.2455,1.2455,0,1.2336,1.236,1.2352,1.2368,1.2394,1.2386,1.2412,1.2413,1.2418,1.2433,1.242,1.2435,1.2426,1.244,1.2436,1.246,1.2463,1.2462,1.246,1.2463,1.2463,1.2467,1.2464,1.2457,1.2457,1.2456,1.2456,0,1.239,1.2386,1.2413,1.2416,1.2417,1.2436,1.2438,1.2453,1.2451,1.247,1.2474,1.2471,1.2487,1.2482,1.2499,1.2496,1.2526,1.2521,1.2524,1.2522,1.2544,1.2541,1.2615,1.2624,1.2558,1.2559,1.256,0,1.2425,1.2443,1.2447,1.2456,1.246,1.2475,1.2484,1.2476,1.2485,1.2493,1.2507,1.2521,1.2532,1.2557,1.2556,1.2569,1.2564,1.2589,1.2566,1.2567,1.2563,1.2562,1.2563,1.2593,1.2594,1.2595,1.2595,0,1.2486,1.2483,1.2496,1.2507,1.2518,1.2527,1.2535,1.2543,1.2535,1.2546,1.2562,1.257,1.2587,1.2601,1.2612,1.2615,1.2604,1.2603,1.2608,1.2611,1.2611,1.261,1.2536,1.2601,1.26,1.26,1.26,1.2599,1.2531,1.2546,1.2551,1.2565,1.257,1.2577,1.2591,1.259,1.2603,1.2616,1.261,1.2628,1.2633,1.2647,1.2651,1.2664,1.2654,1.2662,1.2664,1.2666,1.2669,1.2609,1.2666,1.2666,1.2666,1.2666,1.2665,0,1.2591,1.2593,1.2606,1.2617,1.2628,1.2617,1.2624,1.2634,1.265,1.2656,1.2666,1.2684,1.2697,1.2697,1.2709,1.272,1.2715,1.2723,1.2722,1.2723,1.2677,1.2671,1.2727,1.2727,1.2727,1.2727,1.2727,1.2727,1.2623,1.2647,1.2645,1.2671,1.2672,1.2689,1.2695,1.2701,1.2705,1.2725,1.2736,1.2736,1.2739,1.2751,1.2762,1.2762,1.2767,1.2777,1.2775,1.2732,1.2726,1.272,1.2714,1.2778,1.2778,1.2819,1.2819,1.2819]}]]